Retour au catalogue

AIST-2T NO. 1

ActifScienceSSO
NORAD 67253·PAYLOAD·🇷🇺 Russia
Ce nom de satellite n'a pas encore été confirmé par des sources officielles.

Lancé Dec 28, 2025 depuis Vostochny Cosmodrome

Loading…

Prochains Passages (prochaines 24 heures)

TLE

FraisSource: Space-Track

Époque: Sep 14, 2026, 11:50 UTC

1 67253U 25313F   26257.49332491  .00015465  00000-0  18740-3 0  9998
2 67253  97.0749 334.9552 0004094 236.2988 123.7880 15.60722897 40557

Suivez AIST-2T NO. 1 en temps réel avec AllMySat

Download on the App Store